contact:dominique.lefevre@mio.osupytheas.fr, maurice.libes@osupytheas.fr, didier.mallarino@osupytheas.fr
Project:EMSO http://www.emso-fr.org/EMSO-France
Depth: 2436.0 m
Title:EMSO Ligure Ouest : Data MII capteur AQUADOPP
Date,Latitude,Longitude,X_East,Y_North,Z_Up,Amplitude_X,Amplitude_Y,Amplitude_Z,Batterie,SoundSpeed,Heading,Pitch,Roll,Pressure,TIS,Speed,Direction
, degrees North, degrees East, m.s-1, m.s-1,m.s-1, 1, 1, 1, Volt, m.s-1, degree, degree, degree, dbar, degree_C, m.s-1, degree
2019-09-08T00:09:04,42.805,6.029,-0.043,-0.037,-0.014,100.0,101.0,98.0,13.4,1505.2,324.2,-0.8,1.8,2470.209,13.29,0.056,229.3
2019-09-08T00:12:05,42.805,6.029,-0.041,-0.029,-0.01,100.0,101.0,98.0,13.4,1505.2,324.2,-0.7,1.9,2470.201,13.3,0.05,234.7
2019-09-08T00:15:06,42.805,6.029,-0.052,-0.011,0.005,100.0,102.0,98.0,13.4,1505.3,326.5,-0.7,1.8,2470.172,13.31,0.053,258.1
2019-09-08T00:18:07,42.805,6.029,-0.07,-0.017,-0.022,99.0,101.0,98.0,13.4,1505.3,328.1,-0.7,1.8,2470.147,13.31,0.072,256.3
2019-09-08T00:21:08,42.805,6.029,-0.028,-0.034,0.018,100.0,101.0,98.0,13.4,1505.3,325.1,-0.7,1.8,2470.164,13.31,0.044,219.5
2019-09-08T00:24:09,42.805,6.029,-0.069,-0.033,-0.047,100.0,100.0,98.0,13.4,1505.3,323.8,-0.7,1.8,2470.159,13.32,0.076,244.4
2019-09-08T00:27:10,42.805,6.029,-0.058,-0.003,-0.023,100.0,100.0,99.0,13.4,1505.3,324.6,-0.7,1.8,2470.137,13.32,0.058,267.0
2019-09-08T00:30:11,42.805,6.029,-0.068,-0.031,-0.015,100.0,101.0,98.0,13.4,1505.3,326.9,-0.7,1.8,2470.19,13.32,0.074,245.5
2019-09-08T00:33:12,42.805,6.029,-0.038,-0.031,-0.024,100.0,101.0,97.0,13.4,1505.3,325.1,-0.7,1.8,2470.147,13.32,0.049,230.8
2019-09-08T00:36:13,42.805,6.029,-0.055,-0.016,-0.054,101.0,101.0,98.0,13.4,1505.3,324.4,-0.7,1.9,2470.166,13.32,0.057,253.8
2019-09-08T00:39:14,42.805,6.029,-0.036,-0.035,-0.035,98.0,102.0,99.0,13.4,1505.3,325.3,-0.7,1.8,2470.152,13.32,0.05,225.8
2019-09-08T00:42:15,42.805,6.029,-0.062,-0.032,-0.018,100.0,100.0,98.0,13.4,1505.3,326.4,-0.7,1.8,2470.136,13.32,0.069,242.7
2019-09-08T00:45:16,42.805,6.029,-0.05,-0.03,0.023,99.0,101.0,97.0,13.3,1505.3,326.5,-0.7,1.9,2470.148,13.32,0.058,239.0
2019-09-08T00:48:17,42.805,6.029,-0.038,-0.023,0.001,100.0,101.0,98.0,13.4,1505.3,325.4,-0.7,1.8,2470.135,13.32,0.044,238.8
2019-09-08T00:51:18,42.805,6.029,-0.058,-0.019,-0.039,99.0,101.0,97.0,13.4,1505.3,325.5,-0.7,1.8,2470.126,13.32,0.061,251.9
2019-09-08T00:54:19,42.805,6.029,-0.05,-0.015,0.007,101.0,100.0,99.0,13.4,1505.3,326.3,-0.7,1.8,2470.118,13.32,0.052,253.3
2019-09-08T00:57:20,42.805,6.029,-0.049,-0.028,-0.008,100.0,100.0,98.0,13.3,1505.3,325.7,-0.7,1.8,2470.122,13.32,0.056,240.3
2019-09-08T01:00:21,42.805,6.029,-0.029,-0.013,0.004,98.0,101.0,97.0,13.3,1505.3,326.8,-0.7,1.8,2470.15,13.32,0.031,245.9
2019-09-08T01:03:22,42.805,6.029,-0.044,-0.022,-0.013,100.0,100.0,97.0,13.4,1505.3,326.3,-0.7,1.8,2470.151,13.32,0.049,243.4
2019-09-08T01:06:23,42.805,6.029,-0.039,-0.01,0.014,99.0,101.0,98.0,13.4,1505.3,325.4,-0.7,1.8,2470.072,13.32,0.04,255.6
2019-09-08T01:09:24,42.805,6.029,-0.022,-0.023,-0.021,100.0,100.0,97.0,13.4,1505.3,324.6,-0.7,1.8,2470.11,13.32,0.031,223.7
2019-09-08T01:12:25,42.805,6.029,-0.058,-0.019,-0.025,100.0,101.0,97.0,13.3,1505.3,327.2,-0.7,1.8,2470.127,13.32,0.061,251.9
2019-09-08T01:15:26,42.805,6.029,-0.04,-0.033,0.011,100.0,101.0,98.0,13.3,1505.3,326.2,-0.7,1.8,2470.109,13.32,0.051,230.5
2019-09-08T01:18:27,42.805,6.029,-0.047,-0.022,-0.007,99.0,102.0,97.0,13.3,1505.3,328.5,-0.8,1.9,2470.16,13.32,0.051,244.9
2019-09-08T01:21:28,42.805,6.029,-0.051,-0.024,-0.05,100.0,100.0,96.0,13.3,1505.3,327.8,-0.7,1.8,2470.117,13.32,0.056,244.8
2019-09-08T01:24:29,42.805,6.029,-0.036,-0.027,0.039,102.0,101.0,97.0,13.3,1505.3,327.2,-0.8,1.8,2470.134,13.32,0.045,233.1
2019-09-08T01:27:30,42.805,6.029,-0.038,-0.049,-0.001,100.0,100.0,97.0,13.4,1505.3,323.7,-0.7,1.8,2470.156,13.32,0.062,217.8
2019-09-08T01:30:31,42.805,6.029,-0.056,-0.031,-0.007,100.0,100.0,98.0,13.4,1505.3,322.9,-0.7,1.8,2470.13,13.32,0.064,241.0
2019-09-08T01:33:32,42.805,6.029,-0.031,-0.028,-0.001,99.0,101.0,99.0,13.4,1505.3,325.4,-0.7,1.8,2470.098,13.32,0.041,227.9
2019-09-08T01:36:33,42.805,6.029,-0.036,-0.014,0.0,101.0,100.0,97.0,13.3,1505.3,324.2,-0.7,1.9,2470.116,13.32,0.038,248.8
2019-09-08T01:39:34,42.805,6.029,-0.015,-0.015,0.002,100.0,101.0,97.0,13.3,1505.3,324.5,-0.7,1.8,2470.106,13.32,0.021,225.0
2019-09-08T01:42:35,42.805,6.029,-0.022,-0.021,0.019,99.0,103.0,98.0,13.4,1505.3,323.8,-0.7,1.8,2470.145,13.32,0.03,226.3
2019-09-08T01:45:36,42.805,6.029,-0.041,-0.004,-0.014,101.0,100.0,97.0,13.4,1505.3,325.9,-0.7,1.8,2470.091,13.32,0.041,264.4
2019-09-08T01:48:37,42.805,6.029,-0.04,-0.022,-0.012,99.0,101.0,98.0,13.4,1505.3,324.3,-0.7,1.8,2470.098,13.32,0.045,241.2
2019-09-08T01:51:38,42.805,6.029,-0.046,-0.015,-0.028,98.0,101.0,99.0,13.4,1505.3,323.2,-0.7,1.8,2470.112,13.32,0.048,251.9
2019-09-08T01:54:39,42.805,6.029,-0.014,-0.027,0.004,100.0,101.0,97.0,13.4,1505.3,323.9,-0.7,1.9,2470.121,13.32,0.03,207.4
2019-09-08T01:57:40,42.805,6.029,-0.042,-0.016,-0.03,100.0,100.0,98.0,13.4,1505.3,326.4,-0.7,1.8,2470.106,13.32,0.044,249.1
2019-09-08T02:00:41,42.805,6.029,-0.047,-0.018,-0.024,101.0,101.0,97.0,13.4,1505.3,328.4,-0.7,1.9,2470.122,13.32,0.05,249.0
2019-09-08T02:03:42,42.805,6.029,-0.029,-0.021,0.002,101.0,101.0,98.0,13.4,1505.3,325.4,-0.7,1.8,2470.09,13.32,0.035,234.1
2019-09-08T02:06:43,42.805,6.029,-0.027,-0.024,-0.007,99.0,101.0,98.0,13.4,1505.3,324.7,-0.7,1.8,2470.144,13.32,0.036,228.4
2019-09-08T02:09:44,42.805,6.029,-0.056,-0.022,-0.022,100.0,100.0,98.0,13.3,1505.3,326.0,-0.7,1.8,2470.065,13.32,0.06,248.6
2019-09-08T02:12:45,42.805,6.029,-0.042,-0.01,0.0,99.0,101.0,97.0,13.4,1505.3,323.7,-0.7,1.8,2470.116,13.32,0.043,256.6
2019-09-08T02:15:46,42.805,6.029,-0.03,-0.016,-0.019,100.0,100.0,98.0,13.4,1505.3,324.2,-0.7,1.8,2470.103,13.32,0.034,241.9
2019-09-08T02:18:47,42.805,6.029,-0.048,-0.013,-0.031,100.0,101.0,98.0,13.3,1505.3,323.8,-0.7,1.8,2470.151,13.32,0.049,254.8
2019-09-08T02:21:48,42.805,6.029,-0.044,-0.007,0.002,99.0,100.0,97.0,13.4,1505.3,326.7,-0.7,1.8,2470.136,13.32,0.044,261.0
2019-09-08T02:24:49,42.805,6.029,-0.053,-0.034,-0.046,98.0,103.0,97.0,13.3,1505.3,326.6,-0.7,1.9,2470.134,13.32,0.062,237.3
2019-09-08T02:27:50,42.805,6.029,-0.025,-0.023,-0.008,100.0,101.0,96.0,13.4,1505.3,324.0,-0.7,1.8,2470.094,13.32,0.033,227.4
2019-09-08T02:30:51,42.805,6.029,-0.042,-0.009,0.025,98.0,101.0,98.0,13.4,1505.3,323.1,-0.7,1.8,2470.105,13.32,0.042,257.9
2019-09-08T02:33:52,42.805,6.029,-0.032,-0.029,-0.025,99.0,100.0,98.0,13.4,1505.3,324.9,-0.7,1.8,2470.115,13.32,0.043,227.8
2019-09-08T02:36:53,42.805,6.029,-0.067,-0.027,-0.008,100.0,101.0,98.0,13.4,1505.3,324.6,-0.8,1.9,2470.124,13.32,0.072,248.1
2019-09-08T02:39:54,42.805,6.029,-0.037,-0.008,-0.029,98.0,101.0,97.0,13.4,1505.3,328.6,-0.7,1.8,2470.096,13.32,0.037,257.8
2019-09-08T02:42:55,42.805,6.029,-0.032,-0.031,-0.022,100.0,101.0,97.0,13.3,1505.3,326.5,-0.7,1.8,2470.115,13.32,0.044,225.9
2019-09-08T02:45:56,42.805,6.029,-0.046,-0.008,-0.006,100.0,100.0,98.0,13.3,1505.3,324.5,-0.7,1.8,2470.09,13.32,0.046,260.1
2019-09-08T02:48:57,42.805,6.029,0.015,-0.008,0.038,98.0,102.0,97.0,13.4,1505.3,326.6,-0.7,1.8,2470.121,13.32,0.017,118.1
2019-09-08T02:51:58,42.805,6.029,-0.038,-0.045,-0.044,99.0,99.0,99.0,13.4,1505.3,323.5,-0.7,1.8,2470.112,13.32,0.058,220.2
2019-09-08T02:54:59,42.805,6.029,-0.055,-0.019,-0.034,100.0,100.0,97.0,13.4,1505.3,328.1,-0.7,1.8,2470.11,13.32,0.058,250.9
2019-09-08T02:58:00,42.805,6.029,-0.05,-0.035,-0.049,101.0,101.0,98.0,13.4,1505.3,325.2,-0.7,1.8,2470.12,13.32,0.061,235.0
2019-09-08T03:01:01,42.805,6.029,-0.049,-0.01,-0.024,100.0,100.0,97.0,13.4,1505.3,328.4,-0.7,1.8,2470.1,13.32,0.05,258.5
2019-09-08T03:04:02,42.805,6.029,-0.03,-0.01,-0.039,99.0,100.0,97.0,13.4,1505.3,326.0,-0.7,1.8,2470.117,13.32,0.031,251.6
2019-09-08T03:07:03,42.805,6.029,-0.018,-0.013,-0.019,99.0,100.0,96.0,13.4,1505.3,326.6,-0.7,1.9,2470.098,13.32,0.022,234.2
2019-09-08T03:10:04,42.805,6.029,-0.05,-0.017,0.021,100.0,100.0,97.0,13.3,1505.3,323.9,-0.7,1.8,2470.115,13.32,0.052,251.2
2019-09-08T03:13:05,42.805,6.029,-0.032,-0.045,-0.015,99.0,100.0,98.0,13.4,1505.3,324.9,-0.7,1.8,2470.124,13.32,0.055,215.4
2019-09-08T03:16:06,42.805,6.029,-0.044,-0.027,-0.014,99.0,100.0,97.0,13.4,1505.3,327.4,-0.7,1.9,2470.098,13.32,0.051,238.5
2019-09-08T03:19:07,42.805,6.029,-0.041,-0.024,-0.047,99.0,101.0,98.0,13.4,1505.3,328.0,-0.7,1.8,2470.101,13.32,0.047,239.7
2019-09-08T03:22:08,42.805,6.029,-0.021,-0.034,-0.024,99.0,101.0,98.0,13.3,1505.3,328.4,-0.7,1.9,2470.135,13.32,0.039,211.7
2019-09-08T03:25:09,42.805,6.029,-0.033,-0.013,0.008,100.0,100.0,97.0,13.3,1505.3,328.1,-0.7,1.8,2470.132,13.32,0.035,248.5
2019-09-08T03:28:10,42.805,6.029,-0.025,0.012,-0.006,99.0,101.0,97.0,13.4,1505.3,327.2,-0.7,1.8,2470.115,13.32,0.027,295.6
2019-09-08T03:31:11,42.805,6.029,-0.012,-0.022,-0.02,99.0,101.0,96.0,13.4,1505.3,327.8,-0.7,1.8,2470.122,13.32,0.025,208.6
2019-09-08T03:34:12,42.805,6.029,-0.032,-0.011,-0.021,99.0,101.0,97.0,13.4,1505.3,326.2,-0.7,1.8,2470.112,13.32,0.033,251.0
2019-09-08T03:37:13,42.805,6.029,-0.03,-0.012,-0.028,100.0,100.0,97.0,13.4,1505.3,324.7,-0.7,1.9,2470.079,13.32,0.032,248.2
2019-09-08T03:40:14,42.805,6.029,-0.069,-0.041,-0.057,101.0,100.0,98.0,13.4,1505.3,326.6,-0.7,1.8,2470.142,13.32,0.08,239.3
2019-09-08T03:43:15,42.805,6.029,-0.017,-0.014,0.0,99.0,100.0,97.0,13.4,1505.3,323.9,-0.7,1.8,2470.109,13.32,0.022,230.5
2019-09-08T03:46:16,42.805,6.029,-0.016,0.01,-0.008,100.0,100.0,96.0,13.4,1505.3,328.7,-0.7,1.8,2470.106,13.32,0.018,302.0
2019-09-08T03:49:17,42.805,6.029,-0.042,-0.011,-0.036,99.0,100.0,97.0,13.4,1505.3,326.1,-0.7,1.8,2470.106,13.32,0.043,255.3
2019-09-08T03:52:18,42.805,6.029,-0.018,-0.013,-0.027,99.0,101.0,97.0,13.4,1505.3,325.0,-0.7,1.8,2470.13,13.32,0.022,234.2
2019-09-08T03:55:19,42.805,6.029,-0.027,-0.023,-0.038,100.0,101.0,97.0,13.4,1505.3,326.0,-0.7,1.8,2470.15,13.32,0.035,229.6
2019-09-08T03:58:20,42.805,6.029,-0.03,-0.034,0.0,100.0,101.0,98.0,13.4,1505.3,324.1,-0.7,1.9,2470.124,13.32,0.045,221.4
2019-09-08T04:01:21,42.805,6.029,-0.023,0.004,-0.009,99.0,100.0,98.0,13.3,1505.3,324.1,-0.7,1.8,2470.112,13.32,0.023,279.9
2019-09-08T04:04:22,42.805,6.029,-0.017,-0.039,-0.009,101.0,99.0,97.0,13.4,1505.3,327.8,-0.7,1.8,2470.103,13.32,0.042,203.5
2019-09-08T04:07:23,42.805,6.029,-0.018,-0.017,0.018,98.0,100.0,97.0,13.4,1505.3,326.4,-0.8,1.8,2470.093,13.32,0.024,226.6
2019-09-08T04:10:24,42.805,6.029,-0.007,-0.031,-0.001,100.0,101.0,97.0,13.4,1505.3,324.5,-0.7,1.8,2470.148,13.32,0.031,192.7
2019-09-08T04:13:25,42.805,6.029,-0.004,-0.024,-0.014,100.0,100.0,98.0,13.4,1505.3,324.9,-0.7,1.8,2470.102,13.32,0.024,189.5
2019-09-08T04:16:26,42.805,6.029,-0.023,-0.019,0.025,97.0,102.0,98.0,13.3,1505.3,324.3,-0.7,1.8,2470.14,13.32,0.029,230.4
2019-09-08T04:19:27,42.805,6.029,-0.032,-0.035,-0.008,98.0,101.0,97.0,13.4,1505.3,324.5,-0.7,1.8,2470.097,13.32,0.047,222.4
2019-09-08T04:22:28,42.805,6.029,0.01,-0.033,-0.002,99.0,101.0,97.0,13.3,1505.3,324.4,-0.7,1.8,2470.125,13.32,0.034,163.1
2019-09-08T04:25:29,42.805,6.029,-0.019,-0.026,-0.013,100.0,100.0,98.0,13.4,1505.3,324.8,-0.8,1.8,2470.109,13.32,0.032,216.2
2019-09-08T04:28:30,42.805,6.029,-0.057,-0.008,-0.035,98.0,102.0,97.0,13.4,1505.3,324.7,-0.7,1.8,2470.121,13.32,0.057,262.0
2019-09-08T04:31:31,42.805,6.029,-0.028,-0.029,-0.011,98.0,101.0,97.0,13.4,1505.3,327.9,-0.7,1.8,2470.14,13.32,0.04,224.0
2019-09-08T04:34:32,42.805,6.029,-0.035,-0.021,-0.025,99.0,100.0,97.0,13.4,1505.3,326.5,-0.7,1.8,2470.122,13.32,0.04,239.0
2019-09-08T04:37:33,42.805,6.029,-0.034,-0.018,-0.033,100.0,101.0,97.0,13.4,1505.3,324.5,-0.7,1.8,2470.128,13.32,0.038,242.1
2019-09-08T04:40:34,42.805,6.029,-0.028,-0.027,0.002,99.0,101.0,97.0,13.4,1505.3,326.4,-0.7,1.8,2470.121,13.32,0.038,226.0
2019-09-08T04:43:35,42.805,6.029,-0.017,-0.045,-0.037,99.0,101.0,98.0,13.4,1505.3,326.7,-0.8,1.8,2470.088,13.32,0.048,200.7
2019-09-08T04:46:36,42.805,6.029,-0.021,-0.047,-0.017,100.0,101.0,98.0,13.4,1505.3,325.3,-0.7,1.8,2470.117,13.32,0.051,204.1
2019-09-08T04:49:37,42.805,6.029,-0.033,-0.018,0.003,100.0,101.0,97.0,13.3,1505.3,323.7,-0.7,1.8,2470.102,13.32,0.037,241.4
2019-09-08T04:52:38,42.805,6.029,-0.055,-0.023,-0.031,101.0,100.0,99.0,13.4,1505.3,326.8,-0.7,1.8,2470.097,13.32,0.059,247.3
2019-09-08T04:55:39,42.805,6.029,-0.038,-0.021,-0.017,100.0,101.0,98.0,13.3,1505.3,327.2,-0.7,1.8,2470.101,13.32,0.043,241.1
2019-09-08T04:58:40,42.805,6.029,-0.026,-0.018,0.011,100.0,100.0,99.0,13.3,1505.3,326.4,-0.7,1.8,2470.101,13.32,0.031,235.3
2019-09-08T05:01:41,42.805,6.029,-0.031,-0.028,0.005,101.0,100.0,98.0,13.3,1505.3,327.9,-0.7,1.8,2470.126,13.32,0.041,227.9
2019-09-08T05:04:42,42.805,6.029,-0.015,-0.035,-0.008,101.0,102.0,98.0,13.3,1505.3,323.9,-0.7,1.8,2470.111,13.32,0.038,203.2
2019-09-08T05:07:43,42.805,6.029,-0.035,-0.027,-0.013,101.0,101.0,98.0,13.4,1505.3,324.7,-0.7,1.8,2470.075,13.32,0.044,232.3
2019-09-08T05:10:44,42.805,6.029,-0.047,-0.007,-0.039,101.0,101.0,96.0,13.3,1505.3,323.5,-0.7,1.8,2470.112,13.32,0.047,261.5
2019-09-08T05:13:45,42.805,6.029,-0.033,-0.024,0.019,100.0,102.0,97.0,13.4,1505.3,326.4,-0.7,1.8,2470.135,13.32,0.04,234.0
2019-09-08T05:16:46,42.805,6.029,-0.047,-0.035,-0.021,102.0,101.0,98.0,13.3,1505.3,327.4,-0.7,1.8,2470.088,13.32,0.058,233.3
2019-09-08T05:19:47,42.805,6.029,-0.058,-0.017,-0.023,100.0,101.0,98.0,13.4,1505.3,324.8,-0.7,1.8,2470.131,13.32,0.06,253.7
2019-09-08T05:22:48,42.805,6.029,-0.046,-0.02,-0.022,101.0,101.0,98.0,13.4,1505.3,323.9,-0.7,1.9,2470.059,13.32,0.05,246.5
2019-09-08T05:25:49,42.805,6.029,-0.038,-0.011,0.0,102.0,100.0,98.0,13.4,1505.3,328.1,-0.7,1.8,2470.072,13.32,0.039,253.9
2019-09-08T05:28:50,42.805,6.029,-0.038,-0.024,-0.039,101.0,101.0,98.0,13.4,1505.3,325.1,-0.7,1.8,2470.063,13.32,0.044,237.7
2019-09-08T05:31:51,42.805,6.029,-0.047,-0.012,0.021,100.0,101.0,98.0,13.3,1505.3,325.9,-0.7,1.8,2470.088,13.32,0.048,255.7
2019-09-08T05:34:52,42.805,6.029,-0.008,-0.03,0.005,99.0,101.0,99.0,13.4,1505.3,323.3,-0.7,1.9,2470.088,13.32,0.031,194.9
2019-09-08T05:37:53,42.805,6.029,-0.029,-0.01,0.037,101.0,102.0,98.0,13.4,1505.3,326.6,-0.7,1.9,2470.083,13.32,0.03,251.0
2019-09-08T05:40:54,42.805,6.029,-0.04,-0.019,-0.029,100.0,102.0,99.0,13.4,1505.3,325.7,-0.7,1.8,2470.12,13.32,0.044,244.6
2019-09-08T05:43:55,42.805,6.029,-0.018,-0.024,-0.017,100.0,101.0,99.0,13.4,1505.3,324.4,-0.7,1.8,2470.107,13.32,0.03,216.9
2019-09-08T05:46:56,42.805,6.029,-0.05,-0.024,-0.041,101.0,101.0,98.0,13.3,1505.3,326.6,-0.7,1.8,2470.116,13.32,0.055,244.4
2019-09-08T05:49:57,42.805,6.029,-0.036,-0.019,0.009,102.0,100.0,97.0,13.4,1505.3,325.5,-0.7,1.9,2470.058,13.32,0.04,242.2
2019-09-08T05:52:58,42.805,6.029,-0.033,-0.022,-0.006,101.0,102.0,96.0,13.3,1505.3,325.9,-0.7,1.8,2470.077,13.32,0.039,236.3
2019-09-08T05:55:59,42.805,6.029,-0.036,-0.023,-0.018,101.0,102.0,98.0,13.4,1505.3,328.3,-0.7,1.8,2470.113,13.32,0.042,237.4
2019-09-08T05:59:00,42.805,6.029,-0.02,-0.028,-0.009,100.0,103.0,98.0,13.4,1505.3,325.4,-0.7,1.8,2470.129,13.32,0.034,215.5
2019-09-08T06:02:01,42.805,6.029,-0.041,-0.027,-0.013,101.0,101.0,98.0,13.4,1505.3,325.0,-0.7,1.8,2470.099,13.32,0.049,236.6
2019-09-08T06:05:02,42.805,6.029,-0.024,-0.013,0.015,101.0,103.0,98.0,13.3,1505.3,324.1,-0.7,1.9,2470.086,13.32,0.027,241.6
2019-09-08T06:08:03,42.805,6.029,-0.036,-0.007,-0.009,102.0,102.0,99.0,13.3,1505.3,326.2,-0.7,1.9,2470.107,13.32,0.036,259.0
2019-09-08T06:11:04,42.805,6.029,-0.059,-0.025,0.004,101.0,102.0,99.0,13.4,1505.3,328.3,-0.7,1.9,2470.1,13.32,0.064,247.0
2019-09-08T06:14:05,42.805,6.029,-0.04,-0.01,-0.016,101.0,102.0,99.0,13.3,1505.3,324.9,-0.7,1.8,2470.079,13.32,0.041,256.0
2019-09-08T06:17:06,42.805,6.029,-0.03,-0.022,-0.018,101.0,100.0,98.0,13.4,1505.3,326.4,-0.7,1.8,2470.088,13.32,0.037,233.7
2019-09-08T06:20:07,42.805,6.029,-0.026,-0.037,0.004,100.0,102.0,98.0,13.4,1505.3,323.5,-0.7,1.8,2470.106,13.32,0.045,215.1
2019-09-08T06:23:08,42.805,6.029,-0.052,-0.026,-0.031,100.0,101.0,98.0,13.4,1505.3,328.4,-0.8,1.8,2470.104,13.32,0.058,243.4
2019-09-08T06:26:09,42.805,6.029,-0.04,-0.022,-0.035,101.0,101.0,98.0,13.4,1505.3,326.6,-0.7,1.9,2470.113,13.32,0.045,241.2
2019-09-08T06:29:10,42.805,6.029,-0.06,-0.018,-0.028,99.0,101.0,98.0,13.3,1505.3,324.5,-0.7,1.8,2470.073,13.32,0.062,253.3
2019-09-08T06:32:11,42.805,6.029,-0.032,-0.026,0.012,99.0,101.0,99.0,13.4,1505.3,324.9,-0.7,1.8,2470.063,13.32,0.041,230.9
2019-09-08T06:35:12,42.805,6.029,-0.034,-0.026,-0.009,102.0,102.0,97.0,13.4,1505.3,327.4,-0.7,1.8,2470.117,13.32,0.042,232.6
2019-09-08T06:38:13,42.805,6.029,-0.071,-0.007,-0.018,101.0,101.0,99.0,13.3,1505.3,326.6,-0.7,1.9,2470.081,13.32,0.071,264.4
2019-09-08T06:41:14,42.805,6.029,-0.027,-0.025,-0.022,100.0,102.0,99.0,13.4,1505.3,324.3,-0.7,1.8,2470.078,13.32,0.036,227.2
2019-09-08T06:44:15,42.805,6.029,-0.037,-0.011,-0.017,100.0,101.0,98.0,13.3,1505.3,326.8,-0.7,1.8,2470.078,13.32,0.038,253.4
2019-09-08T06:47:16,42.805,6.029,-0.049,-0.029,-0.019,100.0,101.0,98.0,13.4,1505.3,325.4,-0.7,1.9,2470.082,13.32,0.056,239.4
2019-09-08T06:50:17,42.805,6.029,-0.044,-0.024,0.003,101.0,102.0,98.0,13.4,1505.3,328.1,-0.7,1.9,2470.107,13.32,0.05,241.4
2019-09-08T06:53:18,42.805,6.029,-0.027,-0.029,0.013,102.0,101.0,98.0,13.4,1505.3,326.5,-0.7,1.9,2470.062,13.32,0.039,223.0
2019-09-08T06:56:19,42.805,6.029,-0.02,-0.029,0.016,101.0,102.0,98.0,13.4,1505.3,325.3,-0.7,1.8,2470.115,13.32,0.035,214.6
2019-09-08T06:59:20,42.805,6.029,-0.035,-0.025,-0.036,101.0,100.0,98.0,13.4,1505.3,324.8,-0.7,1.8,2470.02,13.32,0.043,234.5
2019-09-08T07:02:21,42.805,6.029,-0.032,-0.033,0.006,100.0,102.0,99.0,13.4,1505.3,325.8,-0.7,1.8,2470.054,13.32,0.045,224.1
2019-09-08T07:05:22,42.805,6.029,-0.037,-0.022,0.01,101.0,101.0,99.0,13.4,1505.3,328.5,-0.8,1.9,2470.075,13.32,0.043,239.3
2019-09-08T07:08:23,42.805,6.029,-0.042,-0.017,-0.008,102.0,102.0,99.0,13.3,1505.3,327.1,-0.7,1.9,2470.064,13.32,0.045,248.0
2019-09-08T07:11:24,42.805,6.029,-0.048,-0.019,0.008,101.0,102.0,99.0,13.3,1505.3,326.6,-0.7,1.8,2470.067,13.32,0.051,248.4
2019-09-08T07:14:25,42.805,6.029,-0.059,-0.019,0.002,102.0,102.0,99.0,13.4,1505.3,327.1,-0.7,1.8,2470.075,13.32,0.061,252.2
2019-09-08T07:17:26,42.805,6.029,-0.043,-0.021,0.001,102.0,101.0,99.0,13.4,1505.3,327.3,-0.7,1.9,2470.058,13.32,0.047,244.0
2019-09-08T07:20:27,42.805,6.029,-0.058,-0.037,-0.032,102.0,102.0,98.0,13.4,1505.3,324.0,-0.7,1.9,2470.06,13.32,0.068,237.5
2019-09-08T07:23:28,42.805,6.029,-0.063,-0.011,-0.028,101.0,102.0,99.0,13.3,1505.3,325.8,-0.7,1.8,2470.059,13.32,0.063,260.1
2019-09-08T07:26:29,42.805,6.029,-0.035,-0.03,-0.009,102.0,102.0,98.0,13.3,1505.3,328.5,-0.7,1.9,2470.076,13.32,0.046,229.4
2019-09-08T07:29:30,42.805,6.029,-0.056,-0.032,-0.005,101.0,102.0,98.0,13.4,1505.3,323.7,-0.7,1.8,2470.034,13.32,0.064,240.3
2019-09-08T07:32:31,42.805,6.029,-0.051,-0.041,-0.003,101.0,102.0,99.0,13.3,1505.3,326.3,-0.7,1.8,2470.077,13.32,0.065,231.2
2019-09-08T07:35:32,42.805,6.029,-0.052,-0.027,0.009,102.0,101.0,98.0,13.4,1505.3,323.0,-0.7,1.8,2470.081,13.32,0.058,242.6
2019-09-08T07:38:33,42.805,6.029,-0.035,-0.04,-0.002,101.0,101.0,98.0,13.4,1505.3,326.3,-0.7,1.9,2470.076,13.32,0.053,221.2
2019-09-08T07:41:34,42.805,6.029,-0.077,-0.018,-0.017,102.0,103.0,97.0,13.4,1505.3,324.2,-0.7,1.8,2470.071,13.32,0.079,256.8
2019-09-08T07:44:35,42.805,6.029,-0.043,-0.018,-0.015,101.0,102.0,99.0,13.4,1505.3,327.6,-0.7,1.9,2470.085,13.32,0.046,247.3
2019-09-08T07:47:36,42.805,6.029,-0.056,-0.013,-0.007,101.0,102.0,98.0,13.4,1505.3,324.0,-0.7,1.8,2470.047,13.32,0.057,256.9
2019-09-08T07:50:37,42.805,6.029,-0.048,-0.038,-0.013,101.0,101.0,98.0,13.4,1505.3,327.9,-0.7,1.8,2470.047,13.32,0.061,231.6
2019-09-08T07:53:38,42.805,6.029,-0.044,-0.047,-0.032,101.0,100.0,98.0,13.4,1505.3,324.6,-0.7,1.8,2470.058,13.32,0.064,223.1
2019-09-08T07:56:39,42.805,6.029,-0.075,-0.027,-0.03,101.0,99.0,97.0,13.3,1505.3,327.2,-0.7,1.8,2470.074,13.32,0.079,250.2
2019-09-08T07:59:40,42.805,6.029,-0.045,-0.026,-0.02,100.0,100.0,99.0,13.3,1505.3,325.5,-0.7,1.8,2470.053,13.32,0.051,240.0
2019-09-08T08:02:41,42.805,6.029,-0.058,0.003,-0.042,100.0,101.0,97.0,13.4,1505.3,327.0,-0.7,1.8,2470.023,13.32,0.058,273.0
2019-09-08T08:05:42,42.805,6.029,-0.066,-0.039,-0.002,100.0,100.0,97.0,13.3,1505.3,326.3,-0.7,1.8,2470.099,13.32,0.076,239.4
2019-09-08T08:08:43,42.805,6.029,-0.075,-0.024,-0.021,100.0,100.0,96.0,13.3,1505.3,323.7,-0.7,1.8,2470.028,13.32,0.078,252.3
2019-09-08T08:11:44,42.805,6.029,-0.034,-0.003,0.001,100.0,100.0,98.0,13.3,1505.3,327.3,-0.7,1.8,2470.039,13.32,0.034,265.0
2019-09-08T08:14:45,42.805,6.029,-0.043,-0.02,0.034,99.0,102.0,96.0,13.4,1505.3,326.4,-0.7,1.8,2470.108,13.32,0.047,245.1
2019-09-08T08:17:46,42.805,6.029,-0.056,-0.028,-0.04,98.0,102.0,97.0,13.4,1505.3,326.4,-0.7,1.8,2470.055,13.32,0.062,243.4
2019-09-08T08:20:47,42.805,6.029,0.005,-0.024,0.016,98.0,102.0,99.0,13.4,1505.3,323.3,-0.7,1.8,2470.044,13.32,0.024,168.2
2019-09-08T08:23:48,42.805,6.029,-0.054,-0.027,0.017,99.0,100.0,97.0,13.4,1505.3,325.1,-0.7,1.8,2470.047,13.32,0.06,243.4
2019-09-08T08:26:49,42.805,6.029,-0.054,-0.021,-0.022,100.0,100.0,97.0,13.4,1505.3,327.0,-0.7,1.8,2470.083,13.32,0.057,248.8
2019-09-08T08:29:50,42.805,6.029,-0.052,-0.01,-0.023,99.0,101.0,98.0,13.4,1505.3,327.0,-0.7,1.8,2470.049,13.32,0.052,259.1
2019-09-08T08:32:51,42.805,6.029,-0.054,-0.023,-0.007,100.0,100.0,98.0,13.3,1505.3,324.8,-0.7,1.8,2470.048,13.32,0.058,246.9
2019-09-08T08:35:52,42.805,6.029,-0.022,-0.021,0.001,100.0,101.0,97.0,13.3,1505.3,324.6,-0.7,1.8,2470.057,13.32,0.03,226.3
2019-09-08T08:38:53,42.805,6.029,-0.04,-0.015,-0.022,99.0,100.0,97.0,13.4,1505.3,325.0,-0.7,1.8,2470.031,13.32,0.042,249.4
2019-09-08T08:41:54,42.805,6.029,-0.027,-0.04,0.015,99.0,101.0,97.0,13.4,1505.3,324.1,-0.7,1.8,2470.084,13.32,0.048,214.0
2019-09-08T08:44:55,42.805,6.029,-0.046,-0.039,-0.012,99.0,101.0,98.0,13.4,1505.3,327.3,-0.7,1.8,2470.039,13.32,0.06,229.7
2019-09-08T08:47:56,42.805,6.029,-0.053,-0.032,0.024,101.0,99.0,97.0,13.4,1505.3,327.0,-0.7,1.8,2470.036,13.32,0.061,238.9
2019-09-08T08:50:57,42.805,6.029,-0.056,-0.038,-0.019,99.0,102.0,96.0,13.3,1505.3,323.9,-0.7,1.8,2470.062,13.32,0.067,235.8
2019-09-08T08:53:58,42.805,6.029,-0.053,-0.027,-0.031,99.0,101.0,97.0,13.4,1505.3,326.9,-0.7,1.8,2470.096,13.32,0.059,243.0
2019-09-08T08:56:59,42.805,6.029,-0.045,-0.02,-0.03,100.0,100.0,97.0,13.4,1505.3,326.7,-0.7,1.9,2470.081,13.32,0.049,246.0
2019-09-08T09:00:00,42.805,6.029,-0.072,-0.031,-0.034,100.0,100.0,98.0,13.4,1505.3,325.8,-0.7,1.8,2470.044,13.32,0.078,246.7
2019-09-08T09:03:01,42.805,6.029,-0.065,-0.026,-0.007,99.0,101.0,98.0,13.4,1505.3,327.5,-0.7,1.8,2470.072,13.32,0.07,248.2
2019-09-08T09:06:02,42.805,6.029,-0.037,-0.008,-0.017,100.0,100.0,97.0,13.4,1505.3,324.7,-0.7,1.9,2470.005,13.32,0.037,257.8
2019-09-08T09:09:03,42.805,6.029,-0.056,-0.02,-0.003,99.0,101.0,97.0,13.3,1505.3,325.7,-0.7,1.8,2470.093,13.32,0.059,250.4
2019-09-08T09:12:04,42.805,6.029,-0.033,-0.004,0.028,100.0,101.0,97.0,13.4,1505.3,325.8,-0.7,1.8,2470.075,13.32,0.033,263.1
2019-09-08T09:15:05,42.805,6.029,-0.092,-0.009,-0.024,99.0,100.0,98.0,13.4,1505.3,325.0,-0.7,1.8,2470.085,13.32,0.092,264.4
2019-09-08T09:18:06,42.805,6.029,-0.068,-0.005,-0.014,100.0,100.0,97.0,13.4,1505.3,324.0,-0.7,1.8,2470.04,13.32,0.068,265.8
2019-09-08T09:21:07,42.805,6.029,-0.069,-0.028,-0.021,100.0,100.0,97.0,13.3,1505.3,323.4,-0.7,1.8,2470.054,13.32,0.074,247.9
2019-09-08T09:24:08,42.805,6.029,-0.058,-0.017,-0.003,100.0,100.0,97.0,13.4,1505.3,328.5,-0.7,1.8,2470.052,13.32,0.06,253.7
2019-09-08T09:27:09,42.805,6.029,-0.039,-0.029,0.0,100.0,100.0,98.0,13.3,1505.3,326.3,-0.7,1.8,2470.029,13.32,0.048,233.4
2019-09-08T09:30:10,42.805,6.029,-0.075,-0.028,-0.013,100.0,99.0,97.0,13.3,1505.3,327.0,-0.7,1.8,2470.033,13.32,0.08,249.5
2019-09-08T09:33:11,42.805,6.029,-0.038,-0.024,0.004,100.0,101.0,98.0,13.4,1505.3,323.2,-0.7,1.8,2470.045,13.32,0.044,237.7
2019-09-08T09:36:12,42.805,6.029,-0.055,-0.014,0.011,100.0,101.0,97.0,13.4,1505.3,325.5,-0.7,1.9,2470.081,13.32,0.056,255.7